Back to catalog

SL-3 DEB

AlivePO
NORAD 14950·DEBRIS·🇷🇺 Russia

Launched Dec 14, 1977 from Plesetsk Cosmodrome

Loading…

Next Passes (next 24 hours)

TLE

FreshSource: Space-Track

Epoch: Sep 14, 2026, 10:24 UTC

1 14950U 77117C   26257.43370630 -.00000004  00000-0 -95659-5 0  9995
2 14950  81.2498 242.5797 0028815  60.5529  92.1089 14.09129707504873

Track SL-3 DEB in real time with AllMySat

Download on the App Store